TimeEST,TemperatureF,Dew PointF,Humidity,Sea Level PressureIn,VisibilityMPH,Wind Direction,Wind SpeedMPH,Gust SpeedMPH,PrecipitationIn,Events,Conditions,WindDirDegrees,DateUTC
12:15 AM,28.4,21.2,74,29.89,3.0,North,6.9,-,N/A,,Overcast,360,2013-02-25 05:15:00
12:35 AM,28.4,26.6,93,29.89,6.0,North,6.9,-,N/A,,Overcast,360,2013-02-25 05:35:00
1:15 AM,28.4,24.8,86,29.90,5.0,North,6.9,-,N/A,,Overcast,360,2013-02-25 06:15:00
1:35 AM,28.4,21.2,74,29.91,7.0,North,6.9,-,N/A,,Overcast,360,2013-02-25 06:35:00
1:55 AM,26.6,24.8,93,29.91,7.0,North,6.9,-,N/A,,Overcast,360,2013-02-25 06:55:00
2:15 AM,26.6,17.6,69,29.92,10.0,NNW,6.9,-,N/A,,Mostly Cloudy,340,2013-02-25 07:15:00
2:35 AM,26.6,26.6,100,29.93,8.0,NNW,8.1,-,N/A,,Mostly Cloudy,340,2013-02-25 07:35:00
2:55 AM,26.6,17.6,69,29.93,10.0,North,6.9,-,N/A,,Overcast,360,2013-02-25 07:55:00
3:15 AM,26.6,26.6,100,29.94,10.0,North,9.2,-,N/A,,Overcast,360,2013-02-25 08:15:00
3:35 AM,28.4,17.6,64,29.94,10.0,NNW,9.2,-,N/A,,Overcast,340,2013-02-25 08:35:00
4:15 AM,28.4,19.4,69,29.95,10.0,NW,3.5,-,N/A,,Overcast,310,2013-02-25 09:15:00
4:35 AM,26.6,26.6,100,29.95,10.0,North,5.8,-,N/A,,Mostly Cloudy,360,2013-02-25 09:35:00
4:55 AM,24.8,15.8,69,29.96,10.0,Calm,Calm,-,N/A,,Clear,0,2013-02-25 09:55:00
5:15 AM,21.2,17.6,86,29.98,10.0,Calm,Calm,-,N/A,,Clear,0,2013-02-25 10:15:00
5:35 AM,21.2,21.2,100,29.98,10.0,West,4.6,-,N/A,,Mostly Cloudy,280,2013-02-25 10:35:00
5:55 AM,23.0,19.4,86,29.98,10.0,NW,4.6,-,N/A,,Mostly Cloudy,320,2013-02-25 10:55:00
6:15 AM,21.2,17.6,86,29.99,10.0,Calm,Calm,-,N/A,,Partly Cloudy,0,2013-02-25 11:15:00
6:35 AM,17.6,3.2,53,30.00,10.0,Calm,Calm,-,N/A,,Scattered Clouds,0,2013-02-25 11:35:00
6:55 AM,15.8,15.8,100,30.01,10.0,Calm,Calm,-,N/A,,Mostly Cloudy,0,2013-02-25 11:55:00
7:15 AM,15.8,3.2,58,30.02,0.8,Calm,Calm,-,N/A,,Mostly Cloudy,0,2013-02-25 12:15:00
7:35 AM,17.6,17.6,100,30.03,4.0,Calm,Calm,-,N/A,,Mostly Cloudy,0,2013-02-25 12:35:00
7:55 AM,21.2,8.6,58,30.04,1.8,Calm,Calm,-,N/A,,Overcast,0,2013-02-25 12:55:00
8:15 AM,24.8,24.8,100,30.05,10.0,Calm,Calm,-,0.01,,Mostly Cloudy,0,2013-02-25 13:15:00
8:35 AM,26.6,21.2,80,30.05,10.0,Calm,Calm,-,0.02,,Overcast,0,2013-02-25 13:35:00
8:55 AM,28.4,19.4,69,30.05,10.0,Calm,Calm,-,0.02,,Overcast,0,2013-02-25 13:55:00
9:15 AM,28.4,24.8,86,30.06,10.0,NNW,4.6,-,N/A,,Overcast,340,2013-02-25 14:15:00
9:35 AM,30.2,24.8,80,30.06,10.0,North,5.8,-,N/A,,Overcast,360,2013-02-25 14:35:00
9:55 AM,30.2,19.4,64,30.07,10.0,North,5.8,-,N/A,,Overcast,360,2013-02-25 14:55:00
10:15 AM,30.2,24.8,80,30.08,10.0,North,4.6,-,N/A,,Mostly Cloudy,10,2013-02-25 15:15:00
10:35 AM,32.0,26.6,80,30.08,10.0,NE,3.5,-,N/A,,Partly Cloudy,50,2013-02-25 15:35:00
10:55 AM,32.0,26.6,80,30.10,10.0,Calm,Calm,-,N/A,,Scattered Clouds,0,2013-02-25 15:55:00
11:15 AM,33.8,23.0,65,30.10,10.0,Calm,Calm,-,N/A,,Mostly Cloudy,0,2013-02-25 16:15:00
11:35 AM,33.8,21.2,60,30.10,10.0,Calm,Calm,-,N/A,,Overcast,0,2013-02-25 16:35:00
11:55 AM,33.8,24.8,70,30.10,10.0,ENE,3.5,-,0.05,,Overcast,60,2013-02-25 16:55:00
12:15 PM,33.8,23.0,65,30.09,10.0,Calm,Calm,-,0.05,,Overcast,0,2013-02-25 17:15:00
12:35 PM,33.8,24.8,70,30.09,10.0,North,3.5,-,0.08,,Overcast,10,2013-02-25 17:35:00
12:55 PM,33.8,24.8,70,30.09,10.0,North,4.6,-,0.10,,Overcast,360,2013-02-25 17:55:00
1:15 PM,35.6,24.8,65,30.10,10.0,NNW,4.6,-,0.03,,Overcast,330,2013-02-25 18:15:00
1:35 PM,37.4,21.2,52,30.10,10.0,Calm,Calm,-,0.04,,Overcast,0,2013-02-25 18:35:00
1:55 PM,37.4,24.8,60,30.10,10.0,North,3.5,-,0.07,,Mostly Cloudy,10,2013-02-25 18:55:00
2:15 PM,37.4,26.6,65,30.11,10.0,NW,4.6,-,0.02,,Mostly Cloudy,320,2013-02-25 19:15:00
2:35 PM,37.4,26.6,65,30.12,10.0,West,6.9,-,0.02,,Overcast,270,2013-02-25 19:35:00
2:55 PM,37.4,28.4,70,30.12,10.0,West,6.9,-,0.03,,Mostly Cloudy,280,2013-02-25 19:55:00
3:15 PM,37.4,26.6,65,30.13,10.0,WNW,5.8,-,0.01,,Mostly Cloudy,290,2013-02-25 20:15:00
3:35 PM,37.4,26.6,65,30.13,10.0,West,3.5,-,0.01,,Mostly Cloudy,260,2013-02-25 20:35:00
3:55 PM,37.4,26.6,65,30.14,10.0,WSW,9.2,-,0.02,,Overcast,250,2013-02-25 20:55:00
4:15 PM,37.4,28.4,70,30.15,10.0,WSW,8.1,-,N/A,,Overcast,250,2013-02-25 21:15:00
4:36 PM,37.4,28.4,70,30.15,10.0,West,5.8,-,N/A,,Overcast,270,2013-02-25 21:36:00
4:55 PM,37.4,28.4,70,30.15,10.0,West,3.5,-,0.01,,Overcast,270,2013-02-25 21:55:00
5:15 PM,35.6,30.2,81,30.15,10.0,WSW,4.6,-,N/A,,Overcast,240,2013-02-25 22:15:00
5:35 PM,33.8,30.2,87,30.15,10.0,WSW,3.5,-,N/A,,Overcast,240,2013-02-25 22:35:00
5:55 PM,33.8,30.2,87,30.16,10.0,West,3.5,-,N/A,,Mostly Cloudy,260,2013-02-25 22:55:00
6:15 PM,30.2,30.2,100,30.16,10.0,Calm,Calm,-,N/A,,Partly Cloudy,0,2013-02-25 23:15:00
6:35 PM,30.2,26.6,86,30.16,10.0,Calm,Calm,-,N/A,,Clear,0,2013-02-25 23:35:00
6:55 PM,28.4,28.4,100,30.16,10.0,Calm,Calm,-,N/A,,Clear,0,2013-02-25 23:55:00
7:15 PM,28.4,26.6,93,30.17,5.0,Calm,Calm,-,N/A,,Clear,0,2013-02-26 00:15:00
7:35 PM,28.4,28.4,100,30.18,5.0,Calm,Calm,-,N/A,,Mostly Cloudy,0,2013-02-26 00:35:00
7:55 PM,28.4,28.4,100,30.19,10.0,Calm,Calm,-,N/A,,Overcast,0,2013-02-26 00:55:00
8:15 PM,28.4,24.8,86,30.20,10.0,Calm,Calm,-,N/A,,Overcast,0,2013-02-26 01:15:00
8:35 PM,28.4,24.8,86,30.20,10.0,Calm,Calm,-,N/A,,Overcast,0,2013-02-26 01:35:00
8:55 PM,28.4,26.6,93,30.20,10.0,Calm,Calm,-,N/A,,Overcast,0,2013-02-26 01:55:00
9:15 PM,28.4,24.8,86,30.20,10.0,Calm,Calm,-,N/A,,Overcast,0,2013-02-26 02:15:00
9:35 PM,28.4,26.6,93,30.20,10.0,Calm,Calm,-,N/A,,Overcast,0,2013-02-26 02:35:00
9:55 PM,28.4,24.8,86,30.21,10.0,Calm,Calm,-,N/A,,Overcast,0,2013-02-26 02:55:00
10:35 PM,26.6,24.8,93,30.20,0.8,NNE,3.5,-,N/A,,Overcast,30,2013-02-26 03:35:00
10:55 PM,26.6,24.8,93,30.20,0.5,Calm,Calm,-,N/A,,Overcast,0,2013-02-26 03:55:00
11:15 PM,24.8,19.4,80,30.21,0.2,Calm,Calm,-,N/A,,Overcast,0,2013-02-26 04:15:00
11:35 PM,26.6,24.8,93,30.22,0.2,Calm,Calm,-,N/A,,Overcast,0,2013-02-26 04:35:00
11:55 PM,26.6,24.8,93,30.22,5.0,Calm,Calm,-,N/A,,Overcast,0,2013-02-26 04:55:00